Regional Weather Roundup
Issued by NWS Boston, MA

Home | Current Version | Previous Version | Text Only | Print | Product List | Glossary On
Versions: 1 2 3 4 5 6 7 8 9 10 11 12 13 14 15 16 17 18 19 20 21 22 23 24 25 26 27 28 29 30 31 32 33 34 35 36 37 38 39 40 41 42 43 44 45 46 47 48 49 50
173
ASUS41 KBOX 301510
RWRBOX

REGIONAL WEATHER ROUNDUP
NATIONAL WEATHER SERVICE TAUNTON MA
1100 AM EDT SAT JUL 30 2016

NOTE:  "FAIR" INDICATES FEW OR NO CLOUDS BELOW 12,000 FEET WITH NO
SIGNIFICANT WEATHER AND/OR OBSTRUCTIONS TO VISIBILITY.

MAZALL-301600-
EASTERN MASSACHUSETTS

CITY           SKY/WX    TMP DP  RH WIND       PRES   REMARKS
BOSTON         MOSUNNY   79  60  52 E13       30.03R
BEVERLY        PTSUNNY   82  59  45 VRB3      30.02R
LAWRENCE       MOSUNNY   82  55  39 VRB3      30.05R
BEDFORD        MOSUNNY   82  51  34 NW8       30.02S
BLUE HILL        N/A     80  57  45 NE8       30.04R
NORWOOD        SUNNY     82  60  47 VRB5      30.02R
MARSHFIELD     SUNNY     75  63  64 VRB6G13   30.04R
PLYMOUTH       SUNNY     78  58  49 NE12      30.04R
TAUNTON        SUNNY     82  62  50 E5        30.02R
NEW BEDFORD    SUNNY     82  66  58 E6        30.02R
$$

MAZALL-301600-
CAPE COD AND THE ISLANDS

CITY           SKY/WX    TMP DP  RH WIND       PRES   REMARKS
FALMOUTH       NOT AVBL
HYANNIS          N/A    N/A N/A N/A MISG      30.02R
CHATHAM        SUNNY     73  67  81 NE9       30.03R
PROVINCETOWN   SUNNY     75  65  70 N8        30.04R
NANTUCKET      MOSUNNY   77  70  79 VRB6      30.02R
MARTHAS VNYRD  MOSUNNY   80  69  69 N6        30.02R
$$

MAZALL-301600-
CENTRAL AND WESTERN MASSACHUSETTS

CITY           SKY/WX    TMP DP  RH WIND       PRES   REMARKS
WORCESTER      SUNNY     76  56  49 VRB5      30.07S
FITCHBURG      PTSUNNY   81  56  42 N3        30.05S
ORANGE         CLOUDY    77  57  50 N7        30.06R
SPRINGFIELD    PTSUNNY   80  59  49 VRB2      30.03S
WESTFIELD      MOSUNNY   80  58  46 N8        30.04S
NORTH ADAMS    CLOUDY    76  59  55 VRB3      30.05F
PITTSFIELD     CLOUDY    75  58  55 CALM      30.06S
$$

RIZALL-301600-
RHODE ISLAND

CITY           SKY/WX    TMP DP  RH WIND       PRES   REMARKS
PROVIDENCE     MOSUNNY   82  62  50 E5        30.03R
NEWPORT        SUNNY     80  67  64 MISG      30.03R
BLOCK ISLAND   SUNNY     77  67  71 E7        30.04R
SMITHFIELD     SUNNY     81  61  50 N5        30.04S
WESTERLY       SUNNY     81  66  60 S8        30.03R
$$

CTZALL-301600-
CONNECTICUT

CITY           SKY/WX    TMP DP  RH WIND       PRES   REMARKS
BRADLEY INTL   PTSUNNY   82  59  45 VRB6      30.04S
HARTFORD       SUNNY     83  64  52 VRB5      30.02S
BRIDGEPORT     CLOUDY    80  66  62 E9        30.02R
DANBURY        CLOUDY    76  65  68 E5        30.05R
GROTON         SUNNY     79  68  69 S7        30.02R
NEW HAVEN      MOSUNNY   79  70  74 S8        30.02S
CHESTER        FAIR      82  66  57 CALM      30.04R
MERIDEN        SUNNY     83  63  50 VRB3      30.02S
WILLIMANTIC    SUNNY     82  63  52 NE7       30.04S
OXFORD         PTSUNNY   77  61  57 NE6       30.08R
$$

MEZ002-015-021-024-NHZ003-005-008-011-012-014-VTZ005-008-301600-
NORTHERN NEW ENGLAND

CITY           SKY/WX    TMP DP  RH WIND       PRES   REMARKS
PORTLAND ME    PTSUNNY   78  51  38 N13       30.02S
BANGOR ME      MOSUNNY   81  58  45 N7        30.01S
CONCORD NH     PTSUNNY   78  54  43 NW13      30.05R
MANCHESTER NH  PTSUNNY   80  50  34 N9        30.03R
NASHUA NH      MOSUNNY   79  54  41 VRB5      30.04S
PORTSMOUTH NH  PTSUNNY   77  60  54 SW7       30.02R
JAFFREY NH     MOSUNNY   76  53  44 VRB5      30.08R
KEENE NH       CLOUDY    76  57  51 N6        30.06S
BURLINGTON VT  FAIR      74  53  48 N8        30.08S
MT. WASHINGTON MOSUNNY   50  43  76 VRB2        N/A
$$

NYZ052-076-301600-
EASTERN NEW YORK

CITY           SKY/WX    TMP DP  RH WIND       PRES   REMARKS
ALBANY         CLOUDY    74  61  63 N8        30.06S
NEW YORK CITY  PTSUNNY   78  69  73 NE9       30.01R
$$

ANZALL-301600-
MARINE OBSERVATIONS

STATION/POSITION TIME  TEMP    WIND        PRES    VSBY  WAVE
                       AIR SEA DIR/SP/G                  HT/PER
                 (UTC) (F)     (DEG/KT/KT) (MB)    (MI)  (FT/S)
BOSTON BUOY      1450   71 71   20/ 10/ 12 1016.8R         1/ 8
BUZZARDS BAY     1400   72      70/  3/  3 1016.8R
NANTUCKET SOUND  1450   70 76  100/  8/ 10 1016.4R         1
MASS BAY-STELLWA 1404   70 69  360/ 10/ 12 1016.2R  1 7/8  1/ 8
ISLE OF SHOALS   1400   70      20/  9/ 10 1016.3F
S OF BLOCK IS    1425      73                N/A           2/ 7
$$

......................KEY.........................
  SKY/WX - SKY CONDITION/PRESENT WEATHER
  TMP    - TEMPERATURE IN FAHRENHEIT
  DWPT   - DEWPOINT IN FAHRENHEIT
  RH     - RELATIVE HUMIDITY IN PERCENT
  WIND   - DIRECTION AND SPEED IN MPH
  PRES   - MEAN SEA LEVEL PRESSURE IN INCHES OF HG
  WCI    - WIND CHILL INDEX
  VSB    - VISIBILITY IN MILES
  HX     - HEAT INDEX
  TC     - TEMPERATURE IN CELSIUS
  VRB    - VARIABLE WIND DIRECTION
  N/A    - NOT AVAILABLE




USA.gov is the U.S. government's official web portal to all federal, state and local government web resources and services.